Location: Unspecified
(43.4354°N, 0.0000°E)
Time: 20:03:59
(UTC+00:00)

Vanguard 2 Rocket - Pass Details

Date: 19 June 2019
Orbit: 554 x 3326 km, 32.9° (Epoch: 21 July)

Event Time Altitude Azimuth Distance (km) Brightness Sun altitude
Rises 00:22:59 0° 255° (WSW) 5,001 10.5 -23.0°
Reaches altitude 10° 00:25:49 10° 251° (WSW) 4,318 10.1 -22.9°
Maximum altitude 00:38:16 57° 177° (S) 3,037 9.1 -22.6°
Drops below altitude 10° 00:57:05 10° 106° (ESE) 6,262 11.1 -21.9°
Sets 01:02:13 0° 103° (ESE) 7,311 11.5 -21.7°
